Weather History for Tri-Cities, TN

Change the Weather History Date:

Monday, September 2, 2013

  Actual Average Record
Temperature  
Mean Temperature 76 °F 72 °F  
Max Temperature 84 °F 83 °F 96 °F (1943)
Min Temperature 67 °F 60 °F 45 °F (1967)
Degree Days  
Heating Degree Days 0 0  
Month to date heating degree days 0 0  
Since 1 July heating degree days 0 1  
Cooling Degree Days 11 7  
Month to date cooling degree days 22 14  
Year to date cooling degree days 880 866  
Growing Degree Days 25 (Base 50)    
Moisture  
Dew Point 67 °F    
Average Humidity 78    
Maximum Humidity 97    
Minimum Humidity 58    
Precipitation  
Precipitation T in 0.11 in 2.87 in (1978)
Month to date precipitation 0.32 0.22  
Year to date precipitation 45.19 29.67  
Snow  
Snow 0.00 in 0.00 in - ()
Month to date snowfall 0.0 0.0  
Since 1 July snowfall 0.0 0.0  
Since 1 September snowfall 0.0 0.0  
Snow Depth 0.00 in    
Sea Level Pressure  
Sea Level Pressure 29.88 in    
Wind  
Wind Speed 4 mph (WSW)    
Max Wind Speed 13 mph    
Max Gust Speed 15 mph    
Visibility 7 miles    
Events      
T = Trace of Precipitation, MM = Missing Value Source: NWS Daily Summary

Daily Weather History Graph

Daily Weather History Graph

Search for Another Location

Airport:

Trip Planner

Search our weather history database for the weather conditions in past years. The results will help you decide how hot, cold, wet, or windy it might be!

Date:

Astronomy

Sep. 02, 2013 Rise Set
Actual Time 7:01 AM EDT 7:55 PM EDT
Civil Twilight 6:35 AM EDT 8:22 PM EDT
Nautical Twilight 6:04 AM EDT 8:53 PM EDT
Astronomical Twilight 5:32 AM EDT 9:25 PM EDT
Moon 4:20 AM EDT (9/2) 6:06 PM EDT (9/2)
Length of Visible Light 13h 46m
Length of Day
12h 53m
Waning Crescent, 8% of the Moon is Illuminated
Sep 2
Waning Crescent
Sep 5
New
Sep 12
First Quarter
Sep 19
Full
Sep 26
Last Quarter

Hourly Weather History & Observations

Time (EDT) Temp. Heat Index Dew Point Humidity Pressure Visibility Wind Dir Wind Speed Gust Speed Precip Events Conditions
12:53 AM 68.0 °F - 66.0 °F 93% 29.86 in 5.0 mi ESE 4.6 mph - N/A   Scattered Clouds
1:53 AM 69.1 °F - 66.0 °F 90% 29.86 in 7.0 mi Calm Calm - N/A   Scattered Clouds
2:53 AM 68.0 °F - 66.0 °F 93% 29.86 in 4.0 mi Calm Calm - N/A   Mostly Cloudy
3:46 AM 70.0 °F - 66.9 °F 90% 29.93 in 3.0 mi Calm Calm - N/A   Mostly Cloudy
3:53 AM 70.0 °F - 66.9 °F 90% 29.86 in 4.0 mi Calm Calm - N/A   Overcast
4:53 AM 69.1 °F - 66.9 °F 93% 29.85 in 5.0 mi Calm Calm - N/A   Mostly Cloudy
5:41 AM 70.0 °F - 66.9 °F 90% 29.92 in 5.0 mi SSW 4.6 mph - N/A   Mostly Cloudy
5:53 AM 70.0 °F - 66.9 °F 90% 29.85 in 6.0 mi SW 3.5 mph - N/A   Mostly Cloudy
6:53 AM 70.0 °F - 66.9 °F 90% 29.87 in 7.0 mi SW 3.5 mph - N/A   Mostly Cloudy
7:53 AM 70.0 °F - 66.9 °F 90% 29.89 in 5.0 mi SSW 6.9 mph - N/A   Overcast
8:53 AM 71.1 °F - 66.9 °F 87% 29.89 in 5.0 mi SW 8.1 mph - N/A   Mostly Cloudy
9:53 AM 73.0 °F - 66.9 °F 81% 29.91 in 7.0 mi SW 8.1 mph - N/A   Overcast
10:29 AM 73.9 °F - 66.9 °F 79% 29.98 in 7.0 mi SW 4.6 mph - N/A   Mostly Cloudy
10:53 AM 75.0 °F - 66.9 °F 76% 29.92 in 7.0 mi West 4.6 mph - N/A   Overcast
11:01 AM 75.0 °F - 66.9 °F 76% 29.99 in 8.0 mi West 4.6 mph - N/A   Overcast
11:53 AM 78.1 °F - 66.9 °F 68% 29.92 in 10.0 mi West 6.9 mph - N/A   Mostly Cloudy
12:30 PM 80.1 °F 82.3 °F 66.9 °F 64% 29.99 in 10.0 mi WSW 9.2 mph - N/A   Mostly Cloudy
12:53 PM 80.1 °F 82.1 °F 66.0 °F 62% 29.91 in 10.0 mi WSW 9.2 mph - N/A   Mostly Cloudy
1:53 PM 81.0 °F 83.0 °F 66.0 °F 60% 29.90 in 10.0 mi West 6.9 mph - N/A   Mostly Cloudy
2:53 PM 81.0 °F 83.3 °F 66.9 °F 62% 29.87 in 10.0 mi West 8.1 mph - N/A   Mostly Cloudy
3:53 PM 82.9 °F 85.4 °F 66.9 °F 58% 29.84 in 10.0 mi WSW 8.1 mph - N/A   Mostly Cloudy
4:53 PM 82.0 °F 84.9 °F 68.0 °F 62% 29.83 in 10.0 mi WSW 9.2 mph - N/A   Mostly Cloudy
5:53 PM 82.0 °F 84.9 °F 68.0 °F 62% 29.81 in 10.0 mi SW 10.4 mph - N/A   Mostly Cloudy
6:53 PM 80.1 °F 82.7 °F 68.0 °F 67% 29.82 in 10.0 mi WSW 6.9 mph - N/A   Mostly Cloudy
7:53 PM 77.0 °F - 69.1 °F 76% 29.83 in 10.0 mi Calm Calm - N/A   Mostly Cloudy
8:53 PM 75.0 °F - 66.9 °F 76% 29.86 in 10.0 mi Calm Calm - N/A   Mostly Cloudy
9:53 PM 73.0 °F - 68.0 °F 84% 29.85 in 9.0 mi Calm Calm - N/A   Mostly Cloudy
10:53 PM 70.0 °F - 66.9 °F 90% 29.85 in 6.0 mi Calm Calm - N/A   Mostly Cloudy
11:53 PM 70.0 °F - 68.0 °F 93% 29.87 in 5.0 mi NNE 3.5 mph - N/A   Mostly Cloudy